When you browse on this site, cookies collect data to enhance your experience and personalize the content and advertising you see.
Visit our Privacy Policy to learn more. By continuing to use the site, you agree to this use of cookies and data.

Hourly Weather Blyavtamak

Today, 19 September, Saturday

Time Temperature Precipitation Wind Pressure Humidity
00:00 +10°C° 0 mm 2 mps 736 mmHg 54%
01:00 +10°C° 0 mm 2 mps 736 mmHg 55%
02:00 +9°C° 0 mm 2 mps 736 mmHg 55%
03:00 +9°C° 0 mm 2 mps 735 mmHg 56%
04:00 +9°C° 0 mm 3 mps 735 mmHg 54%
05:00 +9°C° 0 mm 3 mps 735 mmHg 54%
06:00 +9°C° 0 mm 3 mps 734 mmHg 53%
07:00 +10°C° 0 mm 3 mps 734 mmHg 53%
08:00 +12°C° 0 mm 5 mps 733 mmHg 47%
09:00 +14°C° 0 mm 6 mps 733 mmHg 41%
10:00 +16°C° 0 mm 8 mps 733 mmHg 35%
11:00 +17°C° 0 mm 8 mps 732 mmHg 33%
12:00 +17°C° 0 mm 8 mps 732 mmHg 32%
13:00 +18°C° 0 mm 8 mps 731 mmHg 31%
14:00 +18°C° 0 mm 7 mps 730 mmHg 31%
15:00 +19°C° 0 mm 6 mps 730 mmHg 32%
16:00 +19°C° 0 mm 6 mps 729 mmHg 32%
17:00 +17°C° 0 mm 5 mps 728 mmHg 33%
18:00 +16°C° 0 mm 5 mps 727 mmHg 33%
19:00 +16°C° 0 mm 5 mps 727 mmHg 33%
20:00 +15°C° 0 mm 5 mps 726 mmHg 32%
21:00 +15°C° 0 mm 6 mps 725 mmHg 31%
22:00 +15°C° 0 mm 6 mps 724 mmHg 30%
23:00 +14°C° 0 mm 7 mps 723 mmHg 36%

Tomorrow, 20 September, Sunday

Time Temperature Precipitation Wind Pressure Humidity
00:00 +12°C° 0 mm 7 mps 722 mmHg 43%
01:00 +11°C° 0 mm 8 mps 721 mmHg 49%
02:00 +10°C° 0.2 mm 7 mps 720 mmHg 58%
03:00 +9°C° 0.2 mm 6 mps 719 mmHg 68%
04:00 +8°C° 0.2 mm 6 mps 719 mmHg 77%
05:00 +8°C° 1.2 mm 6 mps 718 mmHg 80%
06:00 +8°C° 1.2 mm 6 mps 717 mmHg 83%
07:00 +8°C° 1.2 mm 6 mps 717 mmHg 86%
08:00 +8°C° 0.3 mm 7 mps 718 mmHg 85%
09:00 +7°C° 0.3 mm 9 mps 719 mmHg 84%
10:00 +7°C° 0.3 mm 11 mps 719 mmHg 83%
11:00 +7°C° 0.3 mm 11 mps 720 mmHg 82%
12:00 +7°C° 0.3 mm 10 mps 721 mmHg 80%
13:00 +6°C° 0.3 mm 10 mps 722 mmHg 79%
14:00 +6°C° 0 mm 10 mps 723 mmHg 75%
15:00 +6°C° 0 mm 9 mps 724 mmHg 72%
16:00 +6°C° 0 mm 9 mps 725 mmHg 68%
17:00 +6°C° 0 mm 7 mps 725 mmHg 69%
18:00 +7°C° 0 mm 6 mps 725 mmHg 71%
19:00 +6°C° 0 mm 5 mps 726 mmHg 72%
20:00 +6°C° 0.1 mm 4 mps 726 mmHg 75%
21:00 +6°C° 0.1 mm 4 mps 726 mmHg 78%
22:00 +5°C° 0.1 mm 3 mps 726 mmHg 81%
23:00 +5°C° 0 mm 3 mps 726 mmHg 85%

Day after tomorrow, 21 September, Monday

Time Temperature Precipitation Wind Pressure Humidity
00:00 +4°C° 0 mm 3 mps 726 mmHg 89%
01:00 +3°C° 0 mm 3 mps 726 mmHg 92%
02:00 +4°C° 0.1 mm 3 mps 726 mmHg 93%
03:00 +4°C° 0.1 mm 3 mps 726 mmHg 94%
04:00 +4°C° 0.1 mm 3 mps 726 mmHg 94%
05:00 +4°C° 0.3 mm 4 mps 727 mmHg 92%
06:00 +3°C° 0.3 mm 5 mps 728 mmHg 89%
07:00 +4°C° 0.3 mm 6 mps 728 mmHg 87%
08:00 +4°C° 0 mm 6 mps 729 mmHg 82%
09:00 +5°C° 0 mm 7 mps 730 mmHg 77%
10:00 +5°C° 0 mm 7 mps 730 mmHg 73%
11:00 +6°C° 0.1 mm 7 mps 731 mmHg 70%
12:00 +6°C° 0.1 mm 7 mps 731 mmHg 66%
13:00 +8°C° 0.1 mm 7 mps 732 mmHg 63%
14:00 +6°C° 0.1 mm 7 mps 732 mmHg 63%
15:00 +6°C° 0.1 mm 7 mps 732 mmHg 63%
16:00 +6°C° 0.1 mm 7 mps 732 mmHg 63%
17:00 +5°C° 0 mm 7 mps 732 mmHg 68%
18:00 +5°C° 0 mm 6 mps 733 mmHg 72%
19:00 +5°C° 0 mm 5 mps 733 mmHg 76%
20:00 +5°C° 0 mm 5 mps 733 mmHg 77%
21:00 +5°C° 0 mm 5 mps 733 mmHg 78%
22:00 +5°C° 0 mm 5 mps 733 mmHg 79%
23:00 +5°C° 0 mm 5 mps 733 mmHg 79%

22 September, Tuesday

Time Temperature Precipitation Wind Pressure Humidity
00:00 +5°C° 0 mm 5 mps 733 mmHg 79%
01:00 +4°C° 0 mm 6 mps 733 mmHg 78%
02:00 +4°C° 0 mm 6 mps 733 mmHg 77%
03:00 +5°C° 0 mm 6 mps 733 mmHg 76%
04:00 +5°C° 0 mm 6 mps 733 mmHg 75%
05:00 +5°C° 0.2 mm 6 mps 733 mmHg 77%
06:00 +5°C° 0.2 mm 7 mps 733 mmHg 79%
07:00 +5°C° 0.2 mm 7 mps 733 mmHg 80%
08:00 +6°C° 0 mm 7 mps 733 mmHg 78%
09:00 +8°C° 0 mm 7 mps 733 mmHg 76%
10:00 +9°C° 0 mm 8 mps 734 mmHg 74%
11:00 +9°C° 0.1 mm 7 mps 734 mmHg 69%
12:00 +10°C° 0.1 mm 7 mps 735 mmHg 64%
13:00 +11°C° 0.1 mm 7 mps 735 mmHg 60%
14:00 +11°C° 0 mm 7 mps 735 mmHg 58%
15:00 +11°C° 0 mm 7 mps 735 mmHg 56%
16:00 +11°C° 0 mm 6 mps 735 mmHg 55%
17:00 +10°C° 0 mm 5 mps 736 mmHg 60%
18:00 +8°C° 0 mm 4 mps 736 mmHg 66%
19:00 +8°C° 0 mm 2 mps 736 mmHg 72%
20:00 +8°C° 0 mm 2 mps 736 mmHg 74%
21:00 +8°C° 0 mm 2 mps 736 mmHg 76%
22:00 +7°C° 0 mm 2 mps 736 mmHg 78%
23:00 +7°C° 0 mm 2 mps 736 mmHg 79%

23 September, Wednesday

Time Temperature Precipitation Wind Pressure Humidity
00:00 +7°C° 0 mm 3 mps 736 mmHg 81%
01:00 +7°C° 0 mm 3 mps 736 mmHg 82%
02:00 +7°C° 0 mm 4 mps 736 mmHg 82%
03:00 +7°C° 0 mm 4 mps 735 mmHg 83%
04:00 +8°C° 0 mm 5 mps 735 mmHg 83%
05:00 +8°C° 0 mm 5 mps 735 mmHg 83%
06:00 +8°C° 0 mm 6 mps 735 mmHg 83%
07:00 +8°C° 0 mm 6 mps 735 mmHg 82%
08:00 +10°C° 0 mm 7 mps 735 mmHg 76%
09:00 +11°C° 0 mm 8 mps 734 mmHg 69%
10:00 +13°C° 0 mm 9 mps 734 mmHg 63%
11:00 +15°C° 0 mm 9 mps 734 mmHg 60%
12:00 +16°C° 0 mm 9 mps 734 mmHg 56%
13:00 +17°C° 0 mm 9 mps 734 mmHg 53%
14:00 +17°C° 0 mm 8 mps 734 mmHg 54%
15:00 +17°C° 0 mm 8 mps 734 mmHg 54%
16:00 +17°C° 0 mm 7 mps 734 mmHg 55%
17:00 +16°C° 0 mm 6 mps 734 mmHg 60%
18:00 +14°C° 0 mm 5 mps 734 mmHg 66%
19:00 +13°C° 0 mm 4 mps 734 mmHg 72%
20:00 +13°C° 0 mm 4 mps 734 mmHg 76%
21:00 +12°C° 0 mm 4 mps 735 mmHg 80%
22:00 +11°C° 0 mm 4 mps 735 mmHg 84%
23:00 +11°C° 0 mm 3 mps 735 mmHg 86%

24 September, Thursday

Time Temperature Precipitation Wind Pressure Humidity
00:00 +10°C° 0 mm 3 mps 735 mmHg 88%
01:00 +10°C° 0 mm 2 mps 736 mmHg 91%
02:00 +10°C° 0 mm 2 mps 736 mmHg 91%
03:00 +9°C° 0 mm 2 mps 736 mmHg 92%
04:00 +10°C° 0 mm 1 mps 736 mmHg 93%
05:00 +10°C° 0 mm 1 mps 737 mmHg 93%
06:00 +10°C° 0 mm 1 mps 737 mmHg 93%
07:00 +10°C° 0 mm 1 mps 738 mmHg 93%
08:00 +12°C° 0 mm 1 mps 738 mmHg 84%
09:00 +14°C° 0 mm 2 mps 738 mmHg 76%
10:00 +16°C° 0 mm 3 mps 738 mmHg 67%
11:00 +18°C° 0 mm 3 mps 738 mmHg 60%
12:00 +19°C° 0 mm 3 mps 739 mmHg 54%
13:00 +20°C° 0 mm 3 mps 739 mmHg 48%
14:00 +20°C° 0 mm 3 mps 739 mmHg 46%
15:00 +20°C° 0 mm 3 mps 739 mmHg 45%
16:00 +20°C° 0 mm 3 mps 739 mmHg 43%
17:00 +19°C° 0 mm 2 mps 739 mmHg 49%
18:00 +17°C° 0 mm 2 mps 740 mmHg 55%
19:00 +15°C° 0 mm 1 mps 740 mmHg 61%
20:00 +15°C° 0 mm 1 mps 740 mmHg 64%
21:00 +14°C° 0 mm 1 mps 740 mmHg 67%
22:00 +14°C° 0 mm 1 mps 740 mmHg 69%
23:00 +13°C° 0 mm 1 mps 741 mmHg 71%
Show more